Simultaneous Nadir Overpasses (SNOs) Predictions

Prediction of SNOs between GOES-14 and NOAA-20 Satellite Orbit:

Table of predicted SNOs for the next 14.0 days since TLE Epoch: 9/27/2019
Index Date Time (GOES-14) GOES-14 Lat,Lon NOAA-20 Lat,Lon Distance(km) Time Diff (sec)
1 09/28/2019 08:10:48 0.30,-104.20 -0.23,-101.92 260.60 80
2 09/29/2019 20:32:46 -0.29,-104.24 -0.93,-107.23 340.01 80
3 09/30/2019 20:16:41 -0.29,-104.25 0.07,-102.70 177.35 80
4 10/02/2019 08:38:29 0.27,-104.23 1.10,-107.97 426.26 80
5 10/03/2019 08:17:05 0.29,-104.22 0.09,-103.44 89.12 80
6 10/05/2019 20:22:58 -0.27,-104.24 -0.24,-104.22 3.37 80
7 10/08/2019 08:26:02 0.25,-104.24 0.41,-104.96 82.38 80
8 10/09/2019 08:04:37 0.26,-104.23 -0.59,-100.43 433.20 80
9 10/10/2019 20:26:35 -0.24,-104.23 -0.56,-105.74 171.87 80




NCC Satellite Simultaneous Nadir Overpasses (SNOs) Prediction Service
